User: anonymous   Login
Location: Caltech
(34.1382°N, 118.1253°W)
Time: 02:14:41
(UTC-07:00)
Language:

Cosmos 2322 - Orbit

View from above orbital plane
View from above orbital plane
View from above satellite
View from above satellite

Ground track
Ground track

The orbit data is extracted from the following two-line orbital elements,

1 23704U 95058A   16180.87020916  .00000057  00000-0  55686-4 0  9998
2 23704  70.9843  64.3261 0011277 265.9045  94.0788 14.13342771 65910
Epoch (UTC): 28 June 2016 20:53:06
Eccentricity: 0.0011277
inclination: 70.9843°
perigee height: 840 km
apogee height: 856 km
right ascension of ascending node: 64.3261°
argument of perigee: 265.9045°
revolutions per day: 14.13342771
mean anomaly at epoch: 94.0788°
orbit number at epoch: 6591

The dashed part of the orbit path shows where the satellite is in the earth's shadow,  

DLR